Dati Storici

Data ora Umidita' aria (%) Temperatura aria (°C) Rad globale (W/m²) Gonioanemometro (°) Tacoanemometro (m/s) Pioggia (mm)
11-06-2020 07:30 97.8 % 14.975 -76.487 0.536 0 0
11-06-2020 07:20 97.8 % 14.846 -79.829 0.009 0 0
11-06-2020 07:10 97.8 % 14.545 -77.903 1.22 0 0
11-06-2020 07:00 97.8 % 14.328 -78.239 0.976 0 0
11-06-2020 06:50 97.8 % 14.227 -76.068 0.727 0 0
11-06-2020 06:40 97.8 % 14.141 -79.876 0.013 0 0
11-06-2020 06:30 97.8 % 13.981 -80.335 1.027 0 0
11-06-2020 06:20 97.8 % 13.8 -80.321 1.683 0 0
11-06-2020 06:10 97.9 % 13.585 -80.229 1.365 0 0
11-06-2020 06:00 97.9 % 13.365 -76.397 0.505 0 0
11-06-2020 05:50 97.9 % 13.168 -80.638 0.261 0 0
11-06-2020 05:40 97.9 % 13.052 -79.793 1.024 0 0
11-06-2020 05:30 97.9 % 13.051 -81.102 1.205 0 0
11-06-2020 05:20 97.9 % 13.06 -54.225 0.808 0 0
11-06-2020 05:10 97.9 % 13.024 -77.051 0.248 0 0
11-06-2020 05:00 97.9 % 12.892 -77.7 0.014 0 0
11-06-2020 04:50 97.9 % 12.875 -79.161 0.375 0 0
11-06-2020 04:40 97.9 % 12.948 -79.901 0.622 0 0
11-06-2020 04:30 97.9 % 13.097 -79.431 0.463 0 0
11-06-2020 04:20 97.9 % 13.134 -79.388 1.019 0 0

I dati sono presentati in modo automatico a scopo informativo. In seguito a verifica i dati possono subire modifiche o essere invalidati e non riportati negli archivi definitivi.